Terug naar catalogus

STARLINK-32615

ActiefCommunicatieVLEO
NORAD 62034·PAYLOAD·🇺🇸 United States

Gelanceerd Nov 21, 2024 vanaf Cape Canaveral Space Force Station

Loading…

Volgende Passages (komende 24 uur)

TLE

VersSource: CelesTrak SupGP

Epoch: Sep 14, 2026, 20:53 UTC

1 62034C 24216C   26257.87062500  .00014576  00000+0  52798-3 0  2573
2 62034  42.9998 268.0473 0001539 264.8247 217.7439 15.27567869    19

Volg STARLINK-32615 in realtime met AllMySat

Download on the App Store